map of ISG home
ISG - Airport
Location
City:  Ishigaki, Ishigaki Island, Okinawa, Japan
Name:New Ishigaki Airport
Old (Alt.):Painushima Ishigaki Airport
ICAO:ROIG
IATA:ISG

Details
Type:Airport (Aerodrome, Airfield)
Use:Public/Civil, International (customs port of entry)
Latitude:2423'47"N (24.396389)
Longitude:12414'42"E (124.245000)
Elevation:102 ft (31 m)
Variation:4.68W (WMM2015 magnetic declination)
-0.09 annual change
Runways:1
Longest:6562 × 148 ft (2000 × 45 m), paved

Time
Time Zone:UTC+9
Local Time:

Weather
METAR:ROIG 170700Z 02012KT 9999 VCSH BKN022 BKN035 17/15 Q1020
TAF:ROIG 170510Z 1706/1812 02015KT 9999 FEW015 BKN030

Related Locations
Nearby:
Farthest:SNVY: 12398 mi / 19953 km
Paranhos [Fazenda Ouro Verde], MS, BR

Find:

   beyond  
but within

Other Information
Maps:
NOTAMs:
Links:
Sources:

  
  • flag of Japan
  • flag of Okinawa
  • flag of Ishigaki
  

Sectional Chart

Flight Planning
at skyvector.com

Satellite Image

Google Maps Satellite view

 

Copyright © 2004-2019 Karl L. Swartz. All rights reserved.
The Great Circle Mapper name and logo are trademarks of the Great Circle Mapper.
All other trademarks mentioned herein belong to their respective owners.
Please see credits for attibutions and further copyright information.

  Follow gcmap on Facebook Follow gcmap on Twitter Follow gcmap on Google+ GCmap on LinkedIn

hCard Microformat

Geo Microformat